GFSNE_925_thetae_000.txt.gz
Theta_e
336 337 338 339 341 342 342 342 347 352 349 342 343 342 344 345 345 345 345 346 345 343 342 341 342 342 342 341 346 347 346 346 346 346 347 347 347 347
335 335 335 336 338 339 342 342 342 347 349 341 340 341 344 346 346 346 347 347 348 347 343 342 342 343 344 344 345 346 346 346 346 346 346 346 347 347
331 332 334 335 336 337 339 342 343 343 345 339 338 338 343 346 346 347 348 349 349 347 345 343 343 343 345 345 345 345 345 346 347 347 347 347 348 347
330 331 332 333 335 338 338 338 340 340 342 345 338 340 342 344 346 347 349 347 348 348 348 345 345 345 345 345 344 343 342 343 346 347 346 347 348 348
328 327 328 329 332 335 338 338 337 339 340 342 341 339 339 341 344 346 347 347 347 348 349 344 344 344 343 342 342 341 341 342 341 342 342 343 344 345
325 324 324 327 331 335 336 339 338 338 340 340 341 339 339 341 344 346 348 346 347 347 348 347 344 342 341 339 339 340 341 341 342 342 344 346 347 347
325 323 323 323 324 327 329 337 338 339 338 340 340 338 340 341 344 345 346 347 346 346 346 346 346 345 344 341 338 338 338 340 342 345 346 346 346 346
326 322 322 322 322 323 323 327 333 338 340 340 338 340 341 341 341 343 345 346 348 347 346 345 344 344 344 344 344 343 340 341 342 345 345 344 345 346
325 324 320 320 322 322 322 323 325 332 335 340 339 339 341 341 341 343 344 346 347 343 347 346 344 344 345 344 343 343 342 342 345 345 342 344 345 345
325 325 323 320 321 320 320 320 322 326 336 335 339 338 339 340 340 342 345 346 346 345 347 347 343 344 346 345 345 344 342 343 344 343 342 344 346 346
327 322 323 323 321 320 320 321 321 327 331 337 337 338 339 339 340 341 344 347 346 346 345 346 344 343 346 346 346 344 343 343 343 342 341 342 344 345
326 324 321 322 318 317 321 320 322 323 333 337 337 337 337 338 338 337 343 345 346 345 342 344 344 345 348 345 346 344 342 341 341 341 341 341 343 343
324 323 322 322 320 320 322 323 322 325 331 336 338 338 338 337 338 337 338 341 342 343 341 344 343 345 345 346 344 343 344 340 339 341 341 341 342 343
324 325 323 322 321 321 321 323 323 324 333 337 337 337 337 339 339 339 339 338 340 344 345 345 344 344 344 343 345 343 344 343 342 339 339 341 341 341
321 324 321 321 321 322 321 324 322 323 322 322 328 333 337 338 338 339 339 341 342 343 343 343 345 345 344 343 344 343 343 343 342 339 336 337 339 339
319 323 323 321 322 321 323 323 323 321 322 322 322 323 326 335 337 339 341 341 342 340 339 339 340 341 343 344 343 343 342 342 340 337 337 338 337 339
319 324 321 319 313 316 319 323 323 323 321 320 320 321 322 324 324 332 336 339 339 338 337 340 340 339 339 342 342 342 343 339 338 338 337 337 337 338
323 318 315 313 309 308 308 313 317 322 324 322 320 320 320 322 324 323 325 329 327 329 330 333 337 336 335 333 334 335 338 338 336 335 336 337 337 337
318 315 315 313 309 305 308 308 309 313 319 321 322 323 321 320 320 324 324 326 325 323 323 325 328 331 332 335 329 333 334 333 336 336 336 339 338 339
312 312 311 312 311 310 308 309 308 309 313 315 316 319 321 323 323 320 320 319 320 321 322 321 322 325 327 327 327 325 330 329 331 334 333 335 335 335
310 309 307 306 305 306 308 310 310 309 308 310 314 316 317 319 324 324 324 322 319 320 321 323 320 319 319 320 322 323 322 322 322 327 326 328 332 333
303 303 303 303 303 303 304 304 307 306 308 309 309 311 313 317 318 322 325 324 324 324 323 322 321 321 321 322 324 324 324 324 324 321 320 321 325 329
302 301 295 294 294 294 296 300 302 301 304 306 308 310 309 310 315 318 320 321 323 323 322 322 324 323 323 323 323 322 325 326 326 324 324 321 324 324

GFSNE_925_thetae_003.txt.gz
Theta_e
336 335 335 335 336 337 339 343 344 348 345 341 343 343 344 345 345 344 344 345 344 343 343 343 342 340 339 340 340 339 340 344 346 346 346 346 346 347
333 333 333 332 333 334 336 338 341 344 348 341 342 341 344 345 346 343 347 346 346 345 345 344 342 341 341 341 340 340 341 343 346 346 346 345 346 345
333 330 331 331 330 332 335 336 339 342 346 341 340 337 342 342 340 347 348 348 347 347 347 347 346 343 341 341 341 342 342 343 345 345 345 345 346 346
331 330 329 328 329 329 330 336 338 339 341 343 342 340 343 343 342 346 348 349 348 346 347 346 343 342 342 341 342 343 344 344 345 345 345 346 347 347
330 329 328 327 325 325 324 335 336 338 338 341 341 341 340 342 344 346 346 347 346 350 347 348 347 344 343 343 344 344 344 344 343 342 342 345 346 345
329 329 327 325 324 321 322 325 328 335 338 339 341 341 340 341 343 344 346 345 346 348 348 348 348 344 343 343 344 344 343 342 341 341 341 341 341 342
329 329 327 324 321 321 322 322 323 325 326 341 340 341 340 340 341 342 345 346 347 348 348 349 349 347 343 342 341 340 339 339 340 341 341 342 343 345
328 328 328 325 321 321 319 319 321 323 325 326 340 342 343 341 341 342 345 347 352 347 348 349 349 348 347 347 346 342 338 337 338 339 340 342 345 346
329 328 327 326 325 323 317 319 321 322 323 325 328 337 340 341 340 341 344 346 347 346 348 348 348 348 348 346 345 345 344 343 342 340 341 343 344 343
330 328 328 324 325 323 319 319 320 322 323 325 331 332 336 341 340 338 344 343 346 346 347 350 346 346 345 344 345 345 343 343 343 341 343 344 342 343
328 327 326 323 322 322 319 319 321 322 324 324 325 328 336 339 339 344 340 347 348 346 346 347 347 346 345 345 347 346 345 345 343 341 343 342 342 343
328 327 324 322 323 322 320 321 322 323 321 322 327 330 334 337 338 338 344 342 346 346 345 346 345 345 348 345 347 346 345 344 342 342 342 341 341 343
326 324 324 324 322 321 320 321 322 322 322 327 330 336 338 339 340 338 338 342 343 344 342 345 346 346 346 346 348 348 347 343 339 340 341 340 341 342
322 323 324 323 321 321 322 322 322 320 321 323 334 338 341 340 340 341 339 340 340 342 342 342 344 344 347 347 348 346 345 344 342 341 339 340 341 342
323 321 322 323 321 319 321 323 321 322 320 320 322 323 326 340 341 341 341 340 340 338 340 343 344 345 345 345 348 347 345 345 343 342 339 336 340 341
323 322 325 321 316 314 316 321 319 319 322 320 319 321 323 328 336 338 341 341 342 342 340 342 346 344 345 344 347 346 344 345 344 342 339 337 337 337
319 324 321 317 312 312 312 314 317 319 319 321 320 320 320 323 324 331 338 341 342 342 341 342 343 340 340 341 343 344 343 344 343 339 337 338 340 340
320 321 320 317 313 309 311 311 312 314 318 319 320 322 321 320 320 321 324 328 326 325 331 340 339 338 337 337 339 341 342 341 339 337 338 339 338 339
320 319 317 315 313 312 311 311 311 312 314 317 319 320 322 323 319 319 320 320 322 322 322 325 331 336 336 335 332 337 338 339 338 337 338 338 338 338
316 314 312 311 309 308 308 310 310 312 311 310 315 316 321 322 324 320 319 319 321 321 320 319 320 322 323 324 324 324 329 335 337 337 337 336 336 338
311 310 308 307 306 307 307 307 308 308 309 312 312 312 313 318 322 323 322 321 321 320 320 319 319 319 321 321 322 322 323 324 323 325 332 334 333 333
304 302 299 297 296 297 298 302 304 304 307 309 310 311 311 313 316 321 323 323 323 322 320 320 320 320 320 321 322 319 319 325 322 321 322 324 326 326
305 305 301 297 295 294 294 295 299 302 301 304 309 309 308 308 310 313 320 320 317 320 323 323 322 322 321 321 321 322 318 322 324 322 322 321 323 325

GFSNE_925_thetae_006.txt.gz
Theta_e
333 333 331 333 333 332 333 334 336 337 337 337 341 341 340 339 340 340 340 340 346 344 344 345 347 347 345 344 341 338 340 340 339 339 341 344 344 346
334 332 332 332 330 332 330 331 331 333 335 334 338 341 341 341 343 344 339 343 343 344 344 343 343 343 344 345 344 340 339 339 339 339 340 345 345 346
333 332 331 329 328 328 327 326 326 326 332 334 336 339 341 340 339 340 344 347 346 347 344 344 344 344 344 343 342 342 341 340 340 340 340 344 346 345
333 331 331 329 327 325 324 323 323 324 325 334 335 338 340 341 338 338 342 342 342 345 347 346 346 346 345 345 343 342 342 341 340 340 341 342 344 345
333 330 330 328 326 325 323 321 322 322 323 325 333 337 339 340 340 342 343 340 339 336 349 347 346 346 346 346 344 342 342 341 341 342 343 344 344 344
331 330 329 328 326 323 322 321 319 320 322 322 326 331 338 339 340 340 343 343 343 342 348 347 347 347 347 345 343 342 341 341 342 343 344 344 343 341
331 330 329 328 327 326 324 323 320 319 321 322 324 326 330 338 340 339 341 343 345 345 345 345 347 347 348 347 344 343 343 343 343 343 343 342 341 341
328 329 328 327 327 326 324 324 323 319 320 321 323 323 325 331 338 340 340 343 345 342 343 346 348 346 347 346 341 340 342 342 340 339 339 339 340 341
328 329 328 327 325 324 324 325 323 320 320 321 323 324 325 327 333 339 340 339 341 344 344 347 346 348 349 347 344 340 338 338 339 339 338 338 339 339
329 328 327 326 325 326 323 323 322 320 321 322 323 323 324 326 329 337 339 338 342 344 344 345 345 347 347 349 346 347 346 346 345 343 343 342 340 340
328 328 328 325 324 324 322 321 320 321 322 321 321 321 322 323 326 332 337 338 341 342 344 343 346 346 347 347 348 345 345 344 344 343 343 343 341 343
326 327 326 325 324 322 321 321 321 321 320 321 321 324 325 323 323 325 333 339 337 342 343 343 345 346 345 344 345 345 345 345 344 344 344 342 342 342
324 324 324 324 323 322 319 321 320 319 321 321 320 322 330 329 325 327 334 342 339 341 342 344 344 345 344 346 347 346 345 345 345 345 344 341 342 341
323 324 323 321 323 318 319 320 318 319 319 321 320 321 322 332 331 336 336 338 339 340 341 341 344 344 346 343 343 346 345 346 345 342 341 341 341 340
322 323 322 323 317 316 318 319 319 317 318 319 321 322 321 323 336 338 339 338 337 337 338 341 342 343 345 345 345 344 347 345 344 342 339 340 339 340
321 321 323 318 315 313 313 315 317 317 318 319 320 321 321 320 322 332 340 341 340 340 338 338 339 340 344 342 342 342 345 346 344 343 341 340 338 339
318 321 321 318 314 312 312 313 313 313 315 318 319 320 321 320 320 322 326 332 340 341 341 338 337 342 343 342 342 340 342 345 345 344 340 338 337 337
317 319 317 315 313 310 311 311 312 313 312 314 317 317 322 321 320 320 321 321 322 325 329 338 340 338 336 334 336 341 341 343 344 342 339 337 339 338
317 315 313 312 311 309 308 309 309 310 312 313 313 315 316 322 321 320 320 320 320 319 320 323 328 335 337 339 326 330 339 340 339 337 337 338 338 337
312 311 309 308 306 306 306 307 306 307 310 311 312 312 313 316 323 322 321 320 320 320 320 320 320 321 323 325 324 321 328 332 334 337 338 338 337 338
308 305 302 300 298 298 300 301 303 304 305 308 310 310 310 311 313 321 322 322 321 320 320 320 320 320 320 319 319 321 321 322 323 323 332 335 334 334
305 302 299 298 297 296 296 298 299 302 303 304 307 308 310 310 311 315 317 317 320 322 322 320 320 320 320 321 320 319 323 323 322 322 323 324 327 325
307 305 303 302 300 298 296 296 297 298 301 302 302 303 304 310 310 310 312 314 311 312 321 323 323 322 322 320 320 320 320 322 321 323 321 322 320 321

GFSNE_925_thetae_009.txt.gz
Theta_e
333 333 331 333 330 330 327 326 331 326 325 326 326 328 332 336 340 340 339 338 339 339 343 344 348 347 346 346 345 344 342 342 338 337 338 339 340 341
332 332 331 331 328 323 324 322 322 324 324 323 324 325 330 333 338 340 340 338 336 338 340 340 341 348 347 347 346 345 344 343 340 338 340 340 339 339
333 332 331 331 329 326 324 321 320 321 321 321 322 323 328 334 335 339 340 341 341 340 337 339 341 344 345 344 345 345 345 345 343 340 339 340 339 339
332 330 331 331 329 326 323 320 321 320 321 319 320 322 324 327 334 337 339 339 339 340 344 339 341 345 345 343 343 343 343 343 344 343 341 340 340 340
331 331 331 330 329 327 324 321 321 322 320 319 319 321 322 324 327 335 338 339 340 339 337 340 339 343 344 344 344 344 344 344 342 341 341 340 340 340
328 332 331 330 329 328 327 326 325 324 322 319 319 320 321 323 325 329 336 338 339 340 342 342 341 341 342 340 345 345 345 345 345 342 341 341 340 341
329 326 328 329 328 328 327 326 326 324 322 320 319 320 321 321 323 325 328 336 338 339 341 341 338 335 340 346 346 345 346 346 343 341 340 340 341 343
327 326 327 328 327 326 325 323 325 325 324 321 320 321 321 322 322 322 325 331 337 339 341 342 340 346 346 346 346 345 346 345 343 341 341 342 343 343
327 327 327 327 326 325 324 323 324 323 322 321 321 321 322 322 322 322 323 327 335 337 339 341 342 342 343 340 344 346 346 346 343 342 342 342 341 340
326 327 327 327 326 325 324 323 321 321 321 321 321 320 320 321 321 321 322 325 330 337 338 339 341 342 342 343 346 346 346 345 341 341 340 338 339 338
321 323 326 326 325 324 322 321 320 320 319 319 319 320 320 321 321 321 323 326 329 336 338 339 340 341 342 343 344 345 345 346 344 340 339 342 342 342
324 323 321 324 323 322 322 319 320 318 317 318 319 319 320 321 323 325 322 328 330 334 337 340 341 342 342 345 344 342 344 346 347 346 345 344 342 342
321 321 321 324 321 321 318 319 319 317 317 317 318 319 320 322 323 325 322 323 330 335 336 339 341 341 340 342 342 342 343 340 345 345 345 343 342 343
320 321 322 320 320 317 317 318 319 317 317 317 318 319 320 321 320 324 323 323 325 335 337 338 341 341 340 339 342 337 335 342 342 343 342 341 343 342
320 319 319 318 316 315 315 315 316 315 315 316 318 318 319 321 321 330 327 323 326 334 340 338 341 341 340 339 340 343 343 342 340 341 342 342 342 341
317 319 318 316 314 313 313 313 313 313 313 313 315 317 318 321 321 321 326 334 333 337 338 338 339 339 339 340 341 341 341 342 342 342 342 340 339 339
317 318 316 312 311 310 310 309 309 310 312 313 314 315 316 320 321 320 320 321 325 335 337 338 337 338 339 339 340 340 340 341 342 342 342 340 338 339
315 313 312 311 310 309 308 308 308 308 309 311 312 312 313 317 321 320 320 320 320 321 322 332 336 336 334 330 330 332 339 340 340 341 341 339 337 338
312 310 309 308 306 305 304 305 304 305 307 308 310 310 311 315 318 320 320 319 320 320 320 321 329 336 336 334 323 322 331 338 340 339 341 339 338 338
307 305 303 302 301 301 301 302 303 303 303 304 308 308 310 312 315 318 318 320 319 320 320 320 320 320 325 324 322 320 323 328 332 339 338 337 338 338
304 301 299 298 297 296 298 299 301 301 302 303 303 304 307 310 311 314 314 315 316 321 321 321 320 319 320 321 322 322 321 321 321 327 332 335 334 335
305 304 302 301 299 297 296 296 298 299 300 300 301 301 304 308 309 309 310 310 312 314 320 322 320 319 320 320 320 321 322 322 320 320 320 322 323 330
305 304 302 301 299 295 294 293 295 298 298 298 298 299 301 302 306 307 308 308 309 312 315 320 321 321 320 318 319 320 321 321 321 319 319 320 320 320